[[{"header":{"parameterUnit":"m.s-1","parameterCategory":1,"la1":30.2991,"la2":30.254,"lo1":-89.0895,"lo2":-89.0444,"dy":0.0017,"dx":0.0017,"nx":28,"ny":28,"refTime":"2025-03-16T09:00:00:Z","depth":0,"parameterNumber":2,"parameterNumberName":"U-component_of_WINDS"},"data":[0,0,0,0,0,0,0,0,0,0,0,0,0,0,0,0,0,0,0,0,0,0,0,0,0,0,0,0,0,0,0,0,0,0,0,0,0,0,0,0,0,0,0,0,0,0,0,0,0,0,0,0,0,0,0,0,0,0,6.6653,6.6654,0,6.6755,6.6756,6.6757,6.673,6.6728,6.6726,6.6724,6.6829,6.6834,6.6838,0,0,0,0,0,0,0,0,0,0,0,0,0,6.6438,6.6442,6.6653,6.6654,6.6655,6.6754,6.6756,6.6757,6.673,6.6728,6.6725,6.6723,6.6827,6.6833,6.6839,0,0,0,0,0,0,0,0,0,0,0,0,0,6.6535,6.6444,6.6653,6.6654,6.6655,6.6754,6.6756,6.6758,6.6731,6.6728,6.6725,6.6722,6.6826,6.6832,6.6839,6.6944,0,0,6.6861,6.6864,0,0,0,0,0,0,0,0,6.653,6.6543,6.6653,6.6654,6.6656,6.6726,6.6719,6.682,6.6732,6.6702,6.6724,6.672,6.6797,6.6807,6.6832,6.6949,6.6953,6.6861,6.6866,6.6869,6.6871,0,0,0,0,0,0,0,6.6523,6.6538,6.6693,6.6654,6.6656,6.665,6.6661,6.6738,6.6766,6.6704,6.6703,6.6715,6.6798,6.6826,6.6835,6.6955,6.6861,6.6868,6.6872,6.6875,6.7165,6.7168,0,0,0,0,0,0,6.6515,6.6533,6.669,6.6696,6.6584,6.6657,6.6668,6.6707,6.6765,6.6771,6.6718,6.6714,6.6815,6.6826,6.6838,6.6966,6.6869,6.6875,6.6879,6.7161,6.7165,6.7169,0,0,0,0,0,0,6.651,6.6529,6.6686,6.6614,6.6634,6.6664,6.6707,6.671,6.6738,6.6775,6.678,6.6741,6.6813,6.6828,6.6918,6.6969,6.6878,6.6885,6.7157,6.7162,6.7167,6.7221,0,0,0,0,0,0,6.6504,6.6528,6.6567,6.6615,6.6638,6.6763,6.671,6.6715,6.675,6.6746,6.6798,6.6803,6.6812,6.6908,6.6925,6.6977,6.689,6.7153,6.7159,6.7166,6.7215,6.7227,6.7238,0,0,0,0,0,6.6497,6.6577,6.6569,6.6588,6.6687,6.6766,6.6779,6.6787,6.6754,6.6795,6.6819,6.6802,6.6961,6.6917,6.6937,6.6991,6.7149,6.7157,6.7165,6.7209,6.7225,6.7238,0,0,0,0,0,0,6.6533,6.6583,6.6575,6.6673,6.6716,6.6762,6.6812,6.6803,6.6855,6.6849,6.6857,6.6869,6.6961,6.6985,6.6936,6.7097,6.705,6.7063,6.7078,6.7092,6.7104,6.7096,6.6896,0,0,0,0,0,6.6553,6.6612,6.6653,6.6736,6.6758,6.6782,6.6817,6.6819,6.6864,6.6882,6.6912,6.6956,6.7016,6.7056,6.7113,6.7218,6.723,6.7266,6.7277,6.7287,6.7297,6.7357,6.7374,6.7195,6.7195,6.7195,0,0,6.6593,6.6628,6.6665,6.6745,6.6778,6.6841,6.6797,6.6864,6.6912,6.6892,6.6979,6.7003,6.7053,6.7152,6.7197,6.7175,6.7349,6.7297,6.7304,6.7309,6.7367,6.7384,6.7399,6.72,6.7199,6.7198,0,0,6.67,6.6732,6.6806,6.6841,6.6892,6.6908,6.6925,6.6974,6.6989,6.7077,6.7064,6.7121,6.7223,6.726,6.7293,6.7417,6.7404,6.7435,6.7496,6.7554,6.7569,6.7581,6.7627,6.7643,6.7446,6.7446,6.7446,0,6.6745,6.6838,6.6845,6.6915,6.6951,6.6937,6.7012,6.7046,6.7113,6.7139,6.7113,6.7244,6.7277,6.7385,6.7416,6.7442,6.7464,6.7429,6.7566,6.7579,6.759,6.7634,6.7651,6.7449,6.7449,6.7449,6.7448,0,6.6891,6.6956,6.701,6.7076,6.7118,6.719,6.721,6.7252,6.7252,6.727,6.7361,6.74,6.7466,6.7492,6.7492,6.7602,6.7587,6.7563,6.7517,6.7611,6.7652,6.7669,6.7454,6.7453,6.7452,6.7451,0,0,6.7022,6.7093,6.7112,6.7143,6.72,6.7251,6.7324,6.7389,6.7426,6.7473,6.7536,6.7624,6.7604,6.7641,6.7645,6.7697,6.7795,6.7668,6.7669,6.7691,6.792,6.7937,6.7956,6.7787,6.779,6.7793,6.7916,0,6.7134,6.7262,6.7272,6.7387,6.7449,6.7438,6.7501,6.7544,6.7564,6.762,6.7642,6.7706,6.7674,6.7696,6.7746,6.7772,6.7841,6.7763,6.7846,6.7849,6.7834,6.7978,6.7996,6.811,6.7932,6.7935,6.7937,0,6.7282,6.7335,6.7457,6.7508,6.7534,6.7591,6.7652,6.7705,6.7754,6.7766,6.7808,6.7807,6.7883,6.7834,6.7941,6.7888,6.7923,6.7941,6.7946,6.7954,6.7898,6.7991,6.8146,6.8164,6.7962,6.796,6.7958,0,6.7367,6.7469,6.7556,6.7582,6.7643,6.7684,6.7711,6.7757,6.7796,6.7851,6.7876,6.7939,6.7973,6.8022,6.8038,6.8001,6.8145,6.8097,6.8157,6.8157,6.8188,6.8186,6.8352,6.8209,6.8209,6.8209,6.8208,0,6.7492,6.7568,6.7595,6.7648,6.7733,6.7745,6.7829,6.7854,6.7895,6.7954,6.7949,6.8004,6.8021,6.8081,6.8094,6.8181,6.8196,6.8209,6.8211,6.821,6.8208,6.8232,6.8225,6.8213,6.8212,6.8211,6.8211,0,6.7601,6.7623,6.7717,6.7767,6.7782,6.7842,6.7886,6.7938,6.7958,6.8033,6.8051,6.8083,6.8153,6.8174,6.8257,6.8266,6.8369,6.8364,6.8352,6.8353,6.8413,6.8407,6.8601,6.8628,6.8467,6.8468,6.8469,0,6.768,6.7738,6.7795,6.7834,6.7864,6.7926,6.7967,6.7981,6.8024,6.8085,6.8131,6.82,6.8255,6.8368,6.8399,6.8464,6.8461,6.8524,6.847,6.8468,6.8463,6.846,6.8466,6.8534,6.8536,6.8538,6.8539,0,6.7818,6.7826,6.7884,6.7947,6.7996,6.8046,6.8094,6.8127,6.8148,6.8196,6.8268,6.8311,6.8398,6.8467,6.8533,6.8562,6.8555,6.8556,6.8573,6.8572,6.8564,6.857,6.8381,6.8551,6.855,6.8549,6.8548,6.8548,6.7915,6.7967,6.8016,6.8081,6.8119,6.8165,6.8217,6.8245,6.8304,6.8375,6.8381,6.8459,6.8509,6.8597,6.863,6.8692,6.8673,6.8698,6.8705,6.8711,6.8717,6.8554,6.8704,6.8703,6.8703,6.8703,6.8702,0,6.8054,6.8085,6.8145,6.8214,6.8266,6.8254,6.8308,6.8353,6.8421,6.8468,6.8524,6.8607,6.8675,6.8712,6.878,6.8823,6.8821,6.884,6.8837,6.8845,6.8728,6.8707,6.884,6.884,6.884,6.884,6.884,6.884,6.8132,6.822,6.8234,6.8341,6.8372,6.8448,6.848,6.8523,6.8561,6.8654,6.871,6.8734,6.8778,6.885,6.8912,6.8921,6.8947,6.8968,6.8976,6.8867,6.8853,6.8839,6.8819,6.8974,6.8974,6.9087,6.9088,6.9089]},{"header":{"parameterUnit":"m.s-1","parameterCategory":1,"la1":30.2991,"la2":30.254,"lo1":-89.0895,"lo2":-89.0444,"dy":0.0017,"dx":0.0017,"nx":28,"ny":28,"refTime":"2025-03-16T09:00:00:Z","depth":0,"parameterNumber":3,"parameterNumberName":"V-component_of_WINDS"},"data":[0,0,0,0,0,0,0,0,0,0,0,0,0,0,0,0,0,0,0,0,0,0,0,0,0,0,0,0,0,0,0,0,0,0,0,0,0,0,0,0,0,0,0,0,0,0,0,0,0,0,0,0,0,0,0,0,0,0,-2.8266,-2.8266,0,-2.8256,-2.8255,-2.8255,-2.8259,-2.8259,-2.8259,-2.826,-2.8245,-2.8245,-2.8244,0,0,0,0,0,0,0,0,0,0,0,0,0,-2.8289,-2.8288,-2.8266,-2.8266,-2.8266,-2.8256,-2.8255,-2.8255,-2.8259,-2.8259,-2.826,-2.826,-2.8245,-2.8245,-2.8244,0,0,0,0,0,0,0,0,0,0,0,0,0,-2.8278,-2.8288,-2.8266,-2.8267,-2.8267,-2.8256,-2.8255,-2.8255,-2.8259,-2.8259,-2.826,-2.826,-2.8246,-2.8245,-2.8244,-2.8231,0,0,-2.8241,-2.8241,0,0,0,0,0,0,0,0,-2.8279,-2.8278,-2.8267,-2.8267,-2.8267,-2.8259,-2.8258,-2.8247,-2.8259,-2.8262,-2.826,-2.826,-2.8249,-2.8248,-2.8245,-2.823,-2.8229,-2.8241,-2.824,-2.824,-2.824,0,0,0,0,0,0,0,-2.828,-2.8278,-2.8262,-2.8267,-2.8266,-2.8267,-2.8266,-2.8256,-2.8253,-2.8261,-2.8262,-2.8261,-2.8249,-2.8246,-2.8245,-2.8229,-2.8241,-2.824,-2.8239,-2.8239,-2.8206,-2.8205,0,0,0,0,0,0,-2.8281,-2.8279,-2.8262,-2.8262,-2.8274,-2.8266,-2.8265,-2.8261,-2.8254,-2.8253,-2.826,-2.8261,-2.8247,-2.8246,-2.8244,-2.823,-2.824,-2.8239,-2.8238,-2.8206,-2.8206,-2.8205,0,0,0,0,0,0,-2.8281,-2.8279,-2.8263,-2.827,-2.8268,-2.8266,-2.8261,-2.8261,-2.8257,-2.8253,-2.8252,-2.8258,-2.8248,-2.8246,-2.8235,-2.823,-2.8239,-2.8238,-2.8207,-2.8206,-2.8206,-2.8201,0,0,0,0,0,0,-2.8282,-2.8279,-2.8274,-2.827,-2.8268,-2.8254,-2.8261,-2.826,-2.8256,-2.8257,-2.825,-2.8249,-2.8248,-2.8236,-2.8234,-2.8228,-2.8237,-2.8207,-2.8206,-2.8206,-2.8201,-2.82,-2.8199,0,0,0,0,0,-2.8283,-2.8272,-2.8274,-2.8272,-2.8262,-2.8253,-2.8252,-2.8252,-2.8256,-2.8251,-2.8248,-2.8249,-2.8231,-2.8235,-2.8233,-2.8227,-2.8207,-2.8206,-2.8206,-2.8202,-2.82,-2.8199,0,0,0,0,0,0,-2.8273,-2.8271,-2.8273,-2.8261,-2.8258,-2.8254,-2.8247,-2.825,-2.8244,-2.8244,-2.8243,-2.8242,-2.8231,-2.8228,-2.8233,-2.8215,-2.822,-2.8218,-2.8218,-2.8216,-2.8215,-2.8216,-2.8236,0,0,0,0,0,-2.827,-2.8265,-2.8263,-2.8252,-2.8251,-2.825,-2.8246,-2.8247,-2.8242,-2.824,-2.8237,-2.8232,-2.8225,-2.822,-2.8214,-2.8201,-2.8201,-2.8196,-2.8195,-2.8194,-2.8193,-2.8188,-2.8187,-2.8203,-2.8203,-2.8203,0,0,-2.8263,-2.8261,-2.8257,-2.8251,-2.8248,-2.8242,-2.8248,-2.8241,-2.8236,-2.8239,-2.8229,-2.8227,-2.8221,-2.821,-2.8205,-2.8207,-2.8189,-2.8193,-2.8193,-2.8192,-2.8187,-2.8186,-2.8185,-2.8202,-2.8203,-2.8203,0,0,-2.8247,-2.8245,-2.8237,-2.8235,-2.8232,-2.8232,-2.823,-2.8227,-2.8226,-2.8217,-2.822,-2.8214,-2.8202,-2.8199,-2.8196,-2.8183,-2.8184,-2.8181,-2.8174,-2.817,-2.8169,-2.8167,-2.8164,-2.8162,-2.818,-2.818,-2.818,0,-2.8238,-2.823,-2.8232,-2.8226,-2.8223,-2.8228,-2.822,-2.8218,-2.8212,-2.821,-2.8213,-2.82,-2.8197,-2.8186,-2.8184,-2.818,-2.8179,-2.8181,-2.8169,-2.8168,-2.8167,-2.8163,-2.8162,-2.8179,-2.8179,-2.8179,-2.8179,0,-2.822,-2.8214,-2.8208,-2.8205,-2.8202,-2.8195,-2.8196,-2.8193,-2.8195,-2.8195,-2.8186,-2.8183,-2.8177,-2.8175,-2.8175,-2.8165,-2.8167,-2.8169,-2.8173,-2.8165,-2.8162,-2.816,-2.8179,-2.8179,-2.8179,-2.8179,0,0,-2.8195,-2.8196,-2.8194,-2.8194,-2.8192,-2.8188,-2.8182,-2.8178,-2.8175,-2.8172,-2.8167,-2.8159,-2.8162,-2.8159,-2.8159,-2.8156,-2.8147,-2.8159,-2.8159,-2.8157,-2.8138,-2.8136,-2.8134,-2.8149,-2.8149,-2.8148,-2.8139,0,-2.8179,-2.817,-2.8173,-2.8163,-2.8159,-2.8165,-2.816,-2.8159,-2.8159,-2.8156,-2.8156,-2.8151,-2.8155,-2.8153,-2.815,-2.8149,-2.8143,-2.815,-2.8144,-2.8144,-2.8145,-2.8132,-2.8129,-2.812,-2.8137,-2.8137,-2.8137,0,-2.8159,-2.8158,-2.8148,-2.815,-2.8148,-2.8144,-2.8142,-2.8138,-2.8138,-2.8138,-2.8137,-2.8139,-2.8134,-2.8139,-2.8132,-2.8137,-2.8135,-2.8135,-2.8135,-2.8134,-2.8139,-2.8131,-2.8117,-2.8116,-2.8135,-2.8135,-2.8135,0,-2.8143,-2.8139,-2.8133,-2.8132,-2.8134,-2.8131,-2.8132,-2.8132,-2.813,-2.8128,-2.8128,-2.8125,-2.8123,-2.8121,-2.8123,-2.8127,-2.8116,-2.8121,-2.8117,-2.8117,-2.8113,-2.8113,-2.8099,-2.8113,-2.8113,-2.8113,-2.8113,0,-2.8125,-2.8119,-2.8126,-2.8122,-2.8117,-2.8121,-2.8115,-2.8116,-2.8117,-2.8114,-2.8118,-2.8115,-2.8118,-2.8116,-2.8117,-2.8112,-2.8111,-2.8112,-2.8112,-2.8111,-2.8111,-2.811,-2.811,-2.8112,-2.8112,-2.8112,-2.8112,0,-2.8105,-2.811,-2.8104,-2.8108,-2.8109,-2.8104,-2.8107,-2.8104,-2.8107,-2.8103,-2.8102,-2.8105,-2.8103,-2.8105,-2.8102,-2.8104,-2.8097,-2.8098,-2.8098,-2.8098,-2.8094,-2.8094,-2.8077,-2.8076,-2.809,-2.809,-2.809,0,-2.8093,-2.8089,-2.8094,-2.8093,-2.8094,-2.8092,-2.8091,-2.8096,-2.8095,-2.8097,-2.8094,-2.8092,-2.8091,-2.8087,-2.8089,-2.8087,-2.8089,-2.8083,-2.8088,-2.8088,-2.8089,-2.809,-2.809,-2.8081,-2.8081,-2.8081,-2.8081,0,-2.8072,-2.8075,-2.8075,-2.8076,-2.8075,-2.8076,-2.8077,-2.8076,-2.8082,-2.808,-2.8079,-2.8079,-2.8078,-2.8076,-2.8076,-2.8076,-2.808,-2.808,-2.8079,-2.8077,-2.8078,-2.8078,-2.8095,-2.808,-2.808,-2.808,-2.808,-2.808,-2.8056,-2.8054,-2.8057,-2.8057,-2.8059,-2.8061,-2.8059,-2.8062,-2.8062,-2.8062,-2.8066,-2.8064,-2.8066,-2.8066,-2.8067,-2.8066,-2.8068,-2.8066,-2.8066,-2.8065,-2.8065,-2.8079,-2.8066,-2.8066,-2.8066,-2.8066,-2.8066,0,-2.8036,-2.8039,-2.8039,-2.8042,-2.8042,-2.8048,-2.805,-2.8049,-2.8049,-2.8051,-2.8051,-2.805,-2.805,-2.8053,-2.8054,-2.8052,-2.8054,-2.8052,-2.8052,-2.8053,-2.8062,-2.8064,-2.8051,-2.8051,-2.8051,-2.8051,-2.8051,-2.8051,-2.8025,-2.8022,-2.8026,-2.8025,-2.8028,-2.8028,-2.8029,-2.8031,-2.8033,-2.8033,-2.8034,-2.8037,-2.804,-2.8041,-2.8041,-2.8042,-2.8042,-2.804,-2.8041,-2.805,-2.8052,-2.8053,-2.8054,-2.804,-2.804,-2.8032,-2.8032,-2.8032]}]]